GW3909 Weather Reports


Display with metric or nautical units.
time (UTC)temp
F
wind
direction
speed
MPH
gust
MPH
rain 1hr
in
rain 24hr
in
rain mn
in
humidity
%
barometer
mb
20260504191758 83 328 3.0 3.0 0.00 0.00 0.00 50 1015.6
20260504191255 83 194 3.0 5.0 0.00 0.00 0.00 50 1015.7
20260504190750 82 33 3.0 3.0 0.00 0.00 0.00 51 1015.7
20260504190247 82 165 4.0 5.0 0.00 0.00 0.00 52 1016.0
20260504185743 83 101 5.0 6.0 0.00 0.00 0.00 50 1016.0
20260504185240 82 289 1.0 1.0 0.00 0.00 0.00 51 1016.0
20260504184737 82 97 9.0 11.0 0.00 0.00 0.00 50 1016.1
20260504184232 81 88 7.0 9.0 0.00 0.00 0.00 52 1016.3
20260504183728 82 105 5.0 6.0 0.00 0.00 0.00 51 1016.4
20260504183226 82 49 7.0 7.0 0.00 0.00 0.00 49 1016.2
20260504182724 82 81 5.0 6.0 0.00 0.00 0.00 50 1016.5
20260504182221 83 71 6.0 10.0 0.00 0.00 0.00 50 1016.5
20260504181718 83 105 4.0 5.0 0.00 0.00 0.00 49 1016.8
20260504181216 82 55 4.0 5.0 0.00 0.00 0.00 49 1016.9
20260504180715 82 53 4.0 5.0 0.00 0.00 0.00 50 1016.9
20260504180213 81 120 3.0 5.0 0.00 0.00 0.00 51 1016.9
20260504175710 82 90 6.0 8.0 0.00 0.00 0.00 51 1016.9
20260504175207 82 333 1.0 1.0 0.00 0.00 0.00 51 1017.0
20260504174705 81 146 4.0 6.0 0.00 0.00 0.00 52 1017.0
20260504174202 81 109 3.0 3.0 0.00 0.00 0.00 52 1017.1
20260504173658 82 77 3.0 8.0 0.00 0.00 0.00 53 1017.4
20260504173155 81 64 2.0 3.0 0.00 0.00 0.00 53 1017.3
20260504172652 81 45 1.0 2.0 0.00 0.00 0.00 54 1017.2
20260504172148 81 358 1.0 2.0 0.00 0.00 0.00 54 1017.4
20260504171645 81 312 3.0 5.0 0.00 0.00 0.00 52 1017.0
20260504171142 82 49 8.0 10.0 0.00 0.00 0.00 52 1017.2
20260504170638 83 64 4.0 5.0 0.00 0.00 0.00 52 1017.4
20260504170136 81 62 4.0 6.0 0.00 0.00 0.00 53 1017.2
20260504151016 78 292 2.0 3.0 0.00 0.00 0.00 57 1018.3
20260504150513 78 334 4.0 6.0 0.00 0.00 0.00 57 1018.3
20260504140939 75 0 5.0 7.0 0.00 0.00 0.00 69 1018.2
20260504140435 75 27 2.0 2.0 0.00 0.00 0.00 69 1017.9
20260504130400 71 282 2.0 2.0 0.00 0.00 0.00 76 1018.0
20260504110247 62 270 0.0 0.0 0.00 0.00 0.00 91 1017.1
20260504100211 62 56 0.0 1.0 0.00 0.00 0.00 91 1016.8
20260504090134 63 252 0.0 1.0 0.00 0.00 0.00 90 1016.6
20260504081604 64 275 0.0 0.0 0.00 0.00 0.00 88 1016.6
20260504081100 64 270 0.0 0.0 0.00 0.00 0.00 88 1016.7
20260504080557 65 235 1.0 1.0 0.00 0.00 0.00 88 1016.7
20260504050404 67 74 2.0 2.0 0.00 0.00 0.00 85 1017.3
20260504045901 67 312 1.0 1.0 0.00 0.00 0.00 85 1017.4
20260504045356 68 278 1.0 1.0 0.00 0.00 0.00 85 1017.7
20260504044853 68 292 1.0 1.0 0.00 0.00 0.00 85 1017.9
20260504044350 68 263 0.0 0.0 0.00 0.00 0.00 85 1018.1
20260504043848 68 274 0.0 0.0 0.00 0.00 0.00 84 1018.2
20260504043344 68 282 0.0 0.0 0.00 0.00 0.00 84 1018.4
20260504042842 68 272 0.0 0.0 0.00 0.00 0.00 84 1018.0
20260504042338 68 273 0.0 0.0 0.00 0.00 0.00 83 1018.2
20260504041834 68 273 0.0 0.0 0.00 0.00 0.00 83 1018.2
20260504041331 68 293 1.0 1.0 0.00 0.00 0.00 83 1018.3
20260504040827 68 268 0.0 0.0 0.00 0.00 0.00 82 1018.6
20260504040325 69 270 0.0 0.0 0.00 0.00 0.00 82 1018.2
20260504035820 69 274 0.0 0.0 0.00 0.08 0.08 81 1018.5
20260504035318 69 280 0.0 0.0 0.00 0.08 0.08 81 1018.4
20260504034815 69 293 1.0 2.0 0.00 0.08 0.08 81 1018.4
20260504034313 70 69 1.0 2.0 0.00 0.08 0.08 81 1018.5
20260504033810 70 345 1.0 1.0 0.00 0.08 0.08 80 1018.3
20260504033307 70 54 3.0 5.0 0.00 0.08 0.08 81 1018.2
20260504032803 70 52 5.0 6.0 0.00 0.08 0.08 80 1018.5
20260504032301 70 31 1.0 2.0 0.00 0.08 0.08 80 1018.1
20260504031757 70 276 1.0 1.0 0.00 0.08 0.08 80 1018.1
20260504031255 70 87 4.0 6.0 0.00 0.08 0.08 80 1018.1
20260504030751 70 142 2.0 3.0 0.00 0.08 0.08 80 1018.0
20260504030248 70 282 1.0 1.0 0.00 0.08 0.08 80 1018.0
20260504025745 70 112 5.0 6.0 0.00 0.08 0.08 80 1018.1
20260504025242 71 63 3.0 3.0 0.00 0.08 0.08 80 1018.0
20260504024738 71 348 1.0 2.0 0.00 0.08 0.08 80 1018.1
20260504024235 71 283 3.0 3.0 0.00 0.08 0.08 80 1017.9
20260504023732 71 91 3.0 3.0 0.00 0.08 0.08 80 1018.2
20260504023228 71 311 0.0 1.0 0.00 0.08 0.08 79 1018.0
20260504022724 71 310 1.0 2.0 0.00 0.08 0.08 79 1018.1
20260504022220 71 305 0.0 1.0 0.00 0.08 0.08 79 1017.8
20260504021712 71 66 3.0 5.0 0.00 0.08 0.08 79 1017.8
20260504021209 71 71 4.0 5.0 0.00 0.08 0.08 79 1017.9
20260504020706 71 53 3.0 5.0 0.00 0.08 0.08 79 1017.7
20260504020202 71 94 4.0 5.0 0.00 0.08 0.08 79 1017.6
20260504015658 71 246 2.0 2.0 0.00 0.08 0.08 78 1017.5
20260504015154 72 342 3.0 5.0 0.00 0.08 0.08 78 1017.4
20260504014650 72 298 1.0 1.0 0.00 0.08 0.08 78 1017.8
20260504014148 72 92 2.0 2.0 0.00 0.08 0.08 78 1017.6
20260504013646 72 184 2.0 3.0 0.00 0.08 0.08 78 1017.2
20260504013142 72 303 1.0 2.0 0.00 0.08 0.08 78 1017.4
20260504012639 72 196 1.0 1.0 0.00 0.08 0.08 78 1017.3
20260504012137 72 85 3.0 5.0 0.00 0.08 0.08 78 1017.3
20260504011633 72 128 3.0 3.0 0.00 0.08 0.08 77 1017.5
20260504011130 72 149 1.0 2.0 0.00 0.08 0.08 77 1017.4
20260504010626 73 98 4.0 6.0 0.00 0.08 0.08 77 1017.1
20260504010122 73 79 5.0 8.0 0.00 0.08 0.08 77 1016.9
20260504005619 73 109 4.0 6.0 0.00 0.08 0.08 77 1016.8
20260504005115 73 74 2.0 2.0 0.00 0.08 0.08 76 1016.9
20260504004614 73 240 1.0 1.0 0.00 0.08 0.08 76 1016.7
20260504004111 73 82 3.0 5.0 0.00 0.08 0.08 76 1016.8
20260504003607 73 346 2.0 2.0 0.00 0.08 0.08 76 1016.9
20260504003103 74 246 3.0 3.0 0.00 0.08 0.08 75 1016.6
20260504002600 74 80 2.0 2.0 0.00 0.08 0.08 75 1016.3
20260504002058 74 70 3.0 5.0 0.00 0.08 0.08 75 1016.3
20260504001555 74 87 3.0 5.0 0.00 0.08 0.08 74 1016.4
20260504001051 75 213 1.0 1.0 0.00 0.08 0.08 74 1016.4
20260504000548 75 73 5.0 6.0 0.00 0.08 0.08 73 1016.3
20260504000046 75 108 4.0 6.0 0.00 0.08 0.08 72 1016.4
20260503235544 75 91 3.0 3.0 0.00 0.08 0.08 72 1016.4
20260503235041 75 144 1.0 2.0 0.00 0.08 0.08 71 1016.3
20260503234538 76 98 3.0 6.0 0.00 0.08 0.08 70 1016.3
20260503234037 76 197 3.0 3.0 0.00 0.08 0.08 70 1016.3
20260503233532 76 107 3.0 3.0 0.00 0.08 0.08 70 1016.3
20260503233028 77 62 2.0 2.0 0.00 0.08 0.08 69 1016.0
20260503232526 77 105 4.0 5.0 0.00 0.08 0.08 68 1016.1
20260503232023 77 145 2.0 3.0 0.00 0.08 0.08 68 1016.0
20260503231521 77 284 1.0 1.0 0.00 0.08 0.08 68 1016.1
20260503231018 78 95 2.0 3.0 0.00 0.08 0.08 67 1016.0
20260503230514 78 192 1.0 3.0 0.00 0.08 0.08 67 1015.9
20260503230012 78 83 4.0 5.0 0.00 0.08 0.08 66 1016.0
20260503225508 78 129 5.0 6.0 0.00 0.08 0.08 64 1016.0
20260503225003 79 125 3.0 5.0 0.00 0.08 0.08 64 1016.0
20260503224501 79 226 2.0 3.0 0.00 0.08 0.08 63 1016.0
20260503223958 80 144 5.0 7.0 0.00 0.08 0.08 62 1016.0
20260503223451 80 64 5.0 6.0 0.00 0.08 0.08 62 1015.9
20260503222946 79 64 3.0 3.0 0.00 0.08 0.08 62 1016.0
20260503222445 80 118 3.0 3.0 0.00 0.08 0.08 62 1016.0
20260503221943 80 342 4.0 6.0 0.00 0.08 0.08 62 1016.0
20260503221441 80 78 5.0 6.0 0.00 0.08 0.08 62 1015.9
20260503220938 79 294 1.0 1.0 0.00 0.08 0.08 63 1015.9
20260503220434 80 85 3.0 5.0 0.00 0.08 0.08 61 1016.0
20260503215931 80 265 1.0 1.0 0.00 0.08 0.08 61 1015.9
20260503215428 80 210 3.0 3.0 0.00 0.08 0.08 62 1016.1
20260503214926 79 97 3.0 3.0 0.00 0.08 0.08 62 1015.8
20260503214423 79 100 6.0 7.0 0.00 0.08 0.08 63 1016.1
20260503213920 78 342 1.0 1.0 0.00 0.08 0.08 64 1016.0
20260503213418 79 96 3.0 6.0 0.00 0.08 0.08 62 1016.2
20260503212914 79 88 3.0 3.0 0.00 0.08 0.08 63 1016.1
20260503212412 78 107 4.0 5.0 0.00 0.08 0.08 63 1015.8
20260503211909 79 121 7.0 8.0 0.00 0.08 0.08 63 1016.1
20260503211405 78 201 1.0 1.0 0.00 0.08 0.08 65 1015.9
20260503210900 79 92 3.0 5.0 0.00 0.08 0.08 63 1016.2
20260503210358 79 56 2.0 3.0 0.00 0.08 0.08 63 1016.2
20260503205852 78 331 1.0 2.0 0.00 0.08 0.08 64 1016.1
20260503205349 78 289 1.0 1.0 0.00 0.08 0.08 64 1016.1
20260503204846 79 269 4.0 5.0 0.00 0.08 0.08 64 1016.3
20260503204343 78 58 5.0 6.0 0.00 0.08 0.08 63 1016.4
20260503203840 79 188 3.0 5.0 0.00 0.08 0.08 63 1016.4
20260503203338 78 23 3.0 3.0 0.00 0.08 0.08 64 1016.6
20260503202835 79 51 3.0 3.0 0.00 0.08 0.08 64 1016.3
20260503202333 80 296 1.0 2.0 0.00 0.08 0.08 62 1016.5
20260503201831 80 302 2.0 2.0 0.00 0.08 0.08 62 1016.4
20260503201327 78 246 1.0 1.0 0.00 0.08 0.08 64 1016.6
20260503200825 77 57 2.0 5.0 0.00 0.08 0.08 66 1016.9
20260503200321 78 319 0.0 0.0 0.00 0.08 0.08 66 1016.7
20260503195818 79 94 3.0 5.0 0.00 0.08 0.08 63 1016.5
20260503195315 78 328 1.0 1.0 0.00 0.08 0.08 64 1016.5
20260503194812 78 298 2.0 3.0 0.00 0.08 0.08 66 1016.9
20260503194308 79 299 2.0 2.0 0.00 0.08 0.08 65 1016.9
20260503193804 78 299 2.0 2.0 0.00 0.08 0.08 65 1017.3
20260503193300 79 227 1.0 2.0 0.00 0.08 0.08 66 1017.2
20260503192756 79 46 1.0 3.0 0.00 0.08 0.08 64 1017.4
20260503192251 77 108 3.0 5.0 0.00 0.08 0.08 66 1017.3